• In Kazakhstan
  • List of Countries
  • For 7 days
  • Water Temperature
  • Weather Map
  • News
  • Weather Widgets
  • user-avatar
    Login

    Hourly Weather Tarija

    Today, 17 October, Thursday

    Time Temperature Precipitation Wind Pressure Humidity
    00:00 +16°C° 0 mm 2 mps 596 mmHg 79%
    01:00 +16°C° 0 mm 2 mps 596 mmHg 80%
    02:00 +16°C° 0 mm 2 mps 596 mmHg 82%
    03:00 +15°C° 0 mm 2 mps 596 mmHg 82%
    04:00 +15°C° 0 mm 2 mps 596 mmHg 82%
    05:00 +15°C° 0 mm 1 mps 596 mmHg 83%
    06:00 +16°C° 0 mm 2 mps 597 mmHg 76%
    07:00 +17°C° 0 mm 2 mps 598 mmHg 70%
    08:00 +19°C° 0 mm 2 mps 599 mmHg 65%
    09:00 +20°C° 0 mm 2 mps 599 mmHg 57%
    10:00 +23°C° 0 mm 2 mps 599 mmHg 49%
    11:00 +25°C° 0 mm 2 mps 600 mmHg 41%
    12:00 +26°C° 0 mm 3 mps 599 mmHg 41%
    13:00 +26°C° 0 mm 4 mps 599 mmHg 40%
    14:00 +27°C° 0 mm 5 mps 598 mmHg 40%
    15:00 +25°C° 0 mm 4 mps 597 mmHg 47%
    16:00 +23°C° 0 mm 4 mps 596 mmHg 55%
    17:00 +21°C° 0 mm 4 mps 595 mmHg 63%
    18:00 +20°C° 0 mm 3 mps 596 mmHg 68%
    19:00 +19°C° 0 mm 2 mps 596 mmHg 72%
    20:00 +18°C° 0 mm 2 mps 597 mmHg 77%
    21:00 +18°C° 0.1 mm 2 mps 597 mmHg 80%
    22:00 +18°C° 0.1 mm 2 mps 598 mmHg 82%
    23:00 +18°C° 0.1 mm 1 mps 598 mmHg 85%

    Tomorrow, 18 October, Friday

    Time Temperature Precipitation Wind Pressure Humidity
    00:00 +18°C° 0 mm 1 mps 598 mmHg 86%
    01:00 +18°C° 0 mm 1 mps 598 mmHg 87%
    02:00 +18°C° 0 mm 1 mps 597 mmHg 88%
    03:00 +16°C° 0.1 mm 2 mps 597 mmHg 88%
    04:00 +16°C° 0.1 mm 2 mps 597 mmHg 89%
    05:00 +16°C° 0.1 mm 2 mps 598 mmHg 90%
    06:00 +16°C° 0.1 mm 2 mps 598 mmHg 90%
    07:00 +15°C° 0.1 mm 2 mps 598 mmHg 90%
    08:00 +15°C° 0.1 mm 2 mps 598 mmHg 89%
    09:00 +16°C° 0 mm 2 mps 598 mmHg 87%
    10:00 +16°C° 0 mm 2 mps 598 mmHg 85%
    11:00 +16°C° 0 mm 2 mps 598 mmHg 82%
    12:00 +17°C° 0 mm 2 mps 598 mmHg 80%
    13:00 +17°C° 0 mm 2 mps 598 mmHg 77%
    14:00 +18°C° 0 mm 2 mps 597 mmHg 75%
    15:00 +17°C° 0.1 mm 2 mps 597 mmHg 78%
    16:00 +17°C° 0.1 mm 2 mps 596 mmHg 82%
    17:00 +16°C° 0.1 mm 2 mps 596 mmHg 85%
    18:00 +16°C° 0.2 mm 2 mps 596 mmHg 87%
    19:00 +15°C° 0.2 mm 2 mps 597 mmHg 88%
    20:00 +15°C° 0.2 mm 1 mps 597 mmHg 90%
    21:00 +15°C° 0.2 mm 2 mps 598 mmHg 90%
    22:00 +14°C° 0.2 mm 2 mps 598 mmHg 91%
    23:00 +14°C° 0.2 mm 2 mps 599 mmHg 92%

    Day after tomorrow, 19 October, Saturday

    Time Temperature Precipitation Wind Pressure Humidity
    00:00 +14°C° 1.2 mm 2 mps 598 mmHg 92%
    01:00 +14°C° 1.2 mm 2 mps 598 mmHg 93%
    02:00 +13°C° 1.2 mm 2 mps 598 mmHg 93%
    03:00 +13°C° 2.2 mm 1 mps 598 mmHg 94%
    04:00 +13°C° 2.2 mm 1 mps 598 mmHg 94%
    05:00 +13°C° 2.2 mm 1 mps 598 mmHg 94%
    06:00 +13°C° 1 mm 1 mps 598 mmHg 94%
    07:00 +13°C° 1 mm 1 mps 599 mmHg 93%
    08:00 +13°C° 1 mm 2 mps 599 mmHg 92%
    09:00 +14°C° 0.1 mm 2 mps 599 mmHg 88%
    10:00 +14°C° 0.1 mm 2 mps 599 mmHg 84%
    11:00 +15°C° 0.1 mm 2 mps 599 mmHg 80%
    12:00 +16°C° 0 mm 2 mps 598 mmHg 78%
    13:00 +17°C° 0 mm 2 mps 598 mmHg 76%
    14:00 +17°C° 0 mm 3 mps 597 mmHg 74%
    15:00 +17°C° 0 mm 2 mps 596 mmHg 76%
    16:00 +16°C° 0 mm 2 mps 596 mmHg 78%
    17:00 +16°C° 0 mm 2 mps 595 mmHg 80%
    18:00 +15°C° 0 mm 2 mps 596 mmHg 82%
    19:00 +15°C° 0 mm 1 mps 596 mmHg 84%
    20:00 +15°C° 0 mm 1 mps 596 mmHg 86%
    21:00 +15°C° 0 mm 1 mps 596 mmHg 85%
    22:00 +15°C° 0 mm 1 mps 596 mmHg 84%
    23:00 +15°C° 0 mm 2 mps 596 mmHg 84%

    20 October, Sunday

    Time Temperature Precipitation Wind Pressure Humidity
    00:00 +15°C° 0 mm 2 mps 596 mmHg 83%
    01:00 +14°C° 0 mm 2 mps 596 mmHg 82%
    02:00 +14°C° 0 mm 2 mps 596 mmHg 82%
    03:00 +14°C° 0 mm 2 mps 596 mmHg 80%
    04:00 +14°C° 0 mm 1 mps 596 mmHg 78%
    05:00 +14°C° 0 mm 1 mps 595 mmHg 77%
    06:00 +15°C° 0 mm 2 mps 596 mmHg 68%
    07:00 +17°C° 0 mm 2 mps 597 mmHg 60%
    08:00 +18°C° 0 mm 2 mps 597 mmHg 51%
    09:00 +20°C° 0 mm 3 mps 598 mmHg 44%
    10:00 +22°C° 0 mm 3 mps 598 mmHg 36%
    11:00 +25°C° 0 mm 3 mps 599 mmHg 28%
    12:00 +26°C° 0 mm 4 mps 598 mmHg 28%
    13:00 +27°C° 0 mm 5 mps 598 mmHg 29%
    14:00 +27°C° 0 mm 5 mps 597 mmHg 29%
    15:00 +26°C° 0 mm 5 mps 597 mmHg 38%
    16:00 +23°C° 0 mm 5 mps 596 mmHg 47%
    17:00 +21°C° 0 mm 4 mps 595 mmHg 56%
    18:00 +20°C° 0 mm 4 mps 595 mmHg 65%
    19:00 +18°C° 0 mm 3 mps 596 mmHg 75%
    20:00 +16°C° 0 mm 2 mps 596 mmHg 85%
    21:00 +16°C° 0 mm 2 mps 596 mmHg 86%
    22:00 +16°C° 0 mm 2 mps 597 mmHg 86%
    23:00 +16°C° 0 mm 2 mps 597 mmHg 87%

    21 October, Monday

    Time Temperature Precipitation Wind Pressure Humidity
    00:00 +15°C° 0 mm 1 mps 597 mmHg 88%
    01:00 +15°C° 0 mm 1 mps 596 mmHg 89%
    02:00 +15°C° 0 mm 1 mps 596 mmHg 90%
    03:00 +15°C° 0 mm 1 mps 596 mmHg 90%
    04:00 +14°C° 0 mm 2 mps 597 mmHg 90%
    05:00 +14°C° 0 mm 2 mps 597 mmHg 91%
    06:00 +14°C° 0.1 mm 2 mps 597 mmHg 89%
    07:00 +14°C° 0.1 mm 2 mps 597 mmHg 88%
    08:00 +14°C° 0.1 mm 2 mps 598 mmHg 86%
    09:00 +15°C° 0 mm 2 mps 598 mmHg 80%
    10:00 +15°C° 0 mm 2 mps 598 mmHg 74%
    11:00 +16°C° 0 mm 2 mps 598 mmHg 68%
    12:00 +17°C° 0 mm 2 mps 597 mmHg 66%
    13:00 +17°C° 0 mm 2 mps 597 mmHg 63%
    14:00 +18°C° 0 mm 2 mps 596 mmHg 60%
    15:00 +17°C° 0 mm 3 mps 596 mmHg 63%
    16:00 +17°C° 0 mm 3 mps 596 mmHg 66%
    17:00 +15°C° 0 mm 4 mps 595 mmHg 68%
    18:00 +16°C° 0 mm 3 mps 596 mmHg 71%
    19:00 +15°C° 0 mm 2 mps 596 mmHg 74%
    20:00 +14°C° 0 mm 2 mps 597 mmHg 77%
    21:00 +14°C° 0 mm 1 mps 597 mmHg 76%
    22:00 +14°C° 0 mm 1 mps 598 mmHg 76%
    23:00 +14°C° 0 mm 1 mps 598 mmHg 75%

    22 October, Tuesday

    Time Temperature Precipitation Wind Pressure Humidity
    00:00 +14°C° 0 mm 1 mps 598 mmHg 75%
    01:00 +13°C° 0 mm 1 mps 597 mmHg 75%
    02:00 +13°C° 0 mm 1 mps 597 mmHg 75%
    03:00 +13°C° 0 mm 1 mps 597 mmHg 75%
    04:00 +12°C° 0 mm 0 mps 597 mmHg 74%
    05:00 +12°C° 0 mm 0 mps 597 mmHg 74%
    06:00 +14°C° 0 mm 1 mps 598 mmHg 71%
    07:00 +14°C° 0 mm 1 mps 598 mmHg 69%
    08:00 +15°C° 0 mm 1 mps 599 mmHg 66%
    09:00 +16°C° 0 mm 1 mps 599 mmHg 62%
    10:00 +17°C° 0 mm 2 mps 599 mmHg 59%
    11:00 +18°C° 0 mm 2 mps 599 mmHg 55%
    12:00 +19°C° 0 mm 2 mps 598 mmHg 54%
    13:00 +19°C° 0 mm 3 mps 597 mmHg 52%
    14:00 +20°C° 0 mm 4 mps 597 mmHg 51%
    15:00 +19°C° 0 mm 4 mps 596 mmHg 52%
    16:00 +19°C° 0 mm 4 mps 596 mmHg 53%
    17:00 +18°C° 0 mm 4 mps 595 mmHg 54%
    18:00 +17°C° 0 mm 3 mps 596 mmHg 56%
    19:00 +17°C° 0 mm 2 mps 596 mmHg 59%
    20:00 +16°C° 0 mm 2 mps 597 mmHg 61%
    21:00 +15°C° 0 mm 2 mps 597 mmHg 63%
    22:00 +15°C° 0 mm 1 mps 597 mmHg 64%
    23:00 +14°C° 0 mm 1 mps 597 mmHg 65%
    Show more